Preview of NWS' New Version of Forecast
This preview is not operational and should not be used for support decisions.

Regional Weather Roundup (RWR)

Issued by National Weather Service (NWS)

                            
000
ASUS46 KSEW 210410
RWRWA 

WASHINGTON REGIONAL WEATHER ROUNDUP
NATIONAL WEATHER SERVICE SEATTLE WA
900 PM PDT FRI SEP 20 2019

NOTE:"FAIR" INDICATES FEW OR NO CLOUDS BELOW 12,000 FEET WITH NO 
SIGNIFICANT WEATHER AND/OR OBSTRUCTIONS TO VISIBILITY.

WAZ507-509-555>559-210500-
SEATTLE, TACOMA, EVERETT, AND VICINITY
  
CITY           SKY/WX    TMP DP  RH WIND       PRES   REMARKS
EVERETT        CLEAR     61  53  75 E5        30.14R                  
BOEING FIELD   PTCLDY    62  54  74 CALM      30.12S                  
RENTON         PTCLDY    61  55  81 S3        30.12R                  
SEATAC AIRPORT PTCLDY    66  54  65 E7        30.13R                  
JBLM-MCCHORD   MOCLDY    59  58  99 CALM      30.12S                  
PUYALLUP       CLOUDY    59  59 100 CALM      30.13S                  
BREMERTON      MOCLDY    57  55  94 CALM      30.12S                  
JBLM-FT LEWIS  MOCLDY    60  60  99 SW3       30.12R                  
TACOMA NARROWS MOCLDY    60  52  74 CALM      30.13R                  
$$
 
WAZ001-503-506-510-514-515-210500-
NORTH INTERIOR
  
CITY           SKY/WX    TMP DP  RH WIND       PRES   REMARKS
BELLINGHAM     PTCLDY    57  52  83 CALM      30.12R                  
FRIDAY HARBOR  CLEAR     52  50  93 CALM      30.13R                  
EASTSOUND      CLEAR     55  54  94 CALM      30.10S                  
PORT ANGELES   CLOUDY    59  56  89 W5        30.13S                  
EDIZ HOOK      CLOUDY    60  56  89 W6        30.12S                  
PORT TOWNSEND  FAIR      54  54 100 CALM      30.11S                  
NAS WHIDBEY    MOCLDY    57  51  80 E3        30.16R                  
ARLINGTON      CLEAR     57  53  86 CALM      30.13R                  
BURLINGTON     CLOUDY    57  54  88 CALM      30.12S                  
$$
 
WAZ020-022-039-040-504-511-512-210500-
SOUTHWEST INTERIOR
  
CITY           SKY/WX    TMP DP  RH WIND       PRES   REMARKS
SHELTON        CLEAR     60  56  86 W7        30.10S                  
OLYMPIA        CLEAR     58  54  86 CALM      30.12R                  
CHEHALIS       FAIR      57  57 100 CALM      30.13S                  
KELSO          CLOUDY    63  57  81 CALM      30.14R                  
VANCOUVER      MOCLDY    63  55  75 CALM      30.12S                  
SCAPPOOSE, OR  MOCLDY    61  58  90 SW3       30.11S                  
PORTLAND, OR   MOCLDY    64  55  72 CALM      30.12S                  
$$
 
WAZ021-516-517-210500-
WASHINGTON COAST
  
CITY           SKY/WX    TMP DP  RH WIND       PRES   REMARKS
FORKS          FOG       54  53  97 CALM      30.14R VSB 1/2          
HOQUIAM        CLEAR     60  59  96 NW6       30.14S                  
ASTORIA, OR    CLOUDY    61  59  93 CALM      30.14R                  
$$
 
WAZ019-023-024-040-567>569-210500-
CASCADE MOUNTAINS AND COLUMBIA GORGE
  
CITY           SKY/WX    TMP DP  RH WIND       PRES   REMARKS
STAMPEDE PASS  NOT AVBL                                               
TROUTDALE, OR  CLOUDY    63  56  78 CALM      30.12S                  
HOOD RIVER, OR MOCLDY    61  48  63 CALM      30.10R                  
THE DALLES, OR PTCLDY    65  48  54 W9        30.05R                  
$$

WAZ026-027-041>044-520-521-210500-
EAST SLOPES
  
CITY           SKY/WX    TMP DP  RH WIND       PRES   REMARKS
OMAK           CLEAR     60  45  57 NW13      30.02R                  
WENATCHEE      PTCLDY    63  43  48 NW12      30.02R                  
ELLENSBURG     PTCLDY    60  44  55 NW18G28   30.04R                  
YAKIMA         CLEAR     64  42  44 NW15      30.04R                  
SUNNYSIDE ARPT PTCLDY    60  52  75 W3        30.02R                  
YAKIMA TC      FAIR      58  42  54 CALM      30.04R                  
$$

WAZ028-034-035-210500-
COLUMBIA BASIN
  
CITY           SKY/WX    TMP DP  RH WIND       PRES   REMARKS
EPHRATA        CLEAR     64  42  44 NW16      29.99R                  
MOSES LAKE     CLEAR     65  48  54 SW6       30.00R                  
PASCO          PTCLDY    64  49  57 CALM      30.01R                  
RICHLAND ARPT  PTCLDY    63  50  61 NW7       30.01                   
HERMISTON, OR  PTCLDY    63  50  62 SW9       30.03R                  
$$

WAZ036>038-210500-
NORTHEAST WASHINGTON
  
CITY           SKY/WX    TMP DP  RH WIND       PRES   REMARKS
SPOKANE GEIGER MOCLDY    57  48  72 SW13      30.02R                  
SPOKANE FELTS  CLOUDY    58  52  80 CALM      30.04R                  
FAIRCHILD AFB  CLOUDY    55  55 100 S12       30.03R                  
COEURDALENE,ID LGT RAIN  55  50  83 SW6       30.05R                  
DEER PARK      CLOUDY    54  49  83 SE5       30.04R                  
$$

WAZ029>033-210500-
SOUTHEAST WASHINGTON
  
CITY           SKY/WX    TMP DP  RH WIND       PRES   REMARKS
PULLMAN        CLOUDY    57  47  69 W3        30.08R                  
LEWISTON, ID   CLOUDY    61  48  62 SE7       30.04R                  
WALLA WALLA    MOCLDY    64  45  49 SE8       30.04R                  
PENDLETON, OR  CLOUDY    60  49  66 SE8       30.05R                  
$$